Location: Walnut Hills Mobile Home Park
(34.0445°N, 117.8184°W)
Time: 03:24:57
(UTC+00:00)

Cosmos 2208 Rocket - Pass Details

Date: 17 December 2025
Orbit: 751 x 801 km, 74.0° (Epoch: 15 January)

Event Time Altitude Azimuth Distance (km) Brightness Sun altitude
Rises 13:35:33 0° 202° (SSW) 3,226 7.2 -15.2°
Reaches altitude 10° 13:37:56 10° 205° (SSW) 2,295 6.4 -14.7°
Maximum altitude 13:43:07 68° 288° (WNW) 817 3.9 -13.7°
Drops below altitude 10° 13:48:16 10° 11° (NNE) 2,283 6.4 -12.7°
Sets 13:50:39 0° 14° (NNE) 3,208 7.2 -12.2°
